OBJECT G, 60241

Orbit data source: Space-Track

You're viewing an Uncataloged Satellite

Recently launched and/or uncataloged satellites may have evolving metadata. Metadata may include but not limited to: Owner, Maufacturer, Bus, Motor, and Mission.

OBJECT G, 60241 is a satellite in LEO that was launched on Tue, 09 Jul 2024 UTC via an ARIANE 62 launch vehicle from the French Guiana (FRGUI). Unknown objects in Earth's orbit typically refer to objects detected orbiting the Earth but have not yet been identified or cataloged. These objects could be anything from previously untracked satellites, spent rocket stages, debris from satellite collisions, or even natural meteoroids temporarily captured by Earth's gravity.

Loading next visibility...
Identifier
60241, 2024-128G
Orbit
LEO
Country
Flag of TBDTBD
Related business
None
Manufacturer
ORBMAT
Mission
Commercial Technology
Bus & Motor
CUBESAT 3U, Unknown motor
Mass
5 kg wet, 5 kg dry
Launch date (UTC)
2024-07-09 (1 year ago)
Launch vehicle
ARIANE 62
Launch site
French Guiana (FRGUI)
Object type
Unknown
Shape & HBR
Box, 0.1 m
Radar Cross Section
0.035 m², Small (<0.1 m²)

Expand to show TLE details & history
Last TLE update: 12 hours ago

TLE from 12 hours ago
0 OBJECT G
1 60241U 24128G   25242.87209552  .00008777  00000-0  62752-3 0  9997
2 60241  61.9912 151.7125 0056167  75.4887 285.2427 15.03840725 62596
Epoch: 2025-08-30T20:55Z
TLE epoch observation values (Epoch: 2025-08-30T20:55:49.052Z)
Latitude
0.00001°
Longitude
-141.54204°
Altitude
546.803 km
Speed
7.595 km/s
True Right ascension
10h 06m 51s
True Declination
0° 00' 00"
Sunlit
Object was in daylight at epoch
Visualization orbit readout
Latitude
Unknown
Longitude
Unknown
Altitude
Unknown
Speed
Unknown
Apparent Right ascension
Unknown
Apparent Declination
Unknown
Sunlit
N/A
Visualization observer readout
Local Sidereal Time
00:24:40
Azimuth
Unknown
Elevation
Unknown
Doppler factor
Unknown
Orbital elements
Apogee altitude
592.932 km
Perigee altitude
515.06 km
Semi-major axis
6,932.133 km
Eccentricity
0.00562
Inclination
61.9912°
RAAN
151.7125°
Arg. of periapsis
75.4887°
True anomaly
284.62058°
Mean anomaly
285.2427°
Eccentric anomaly
284.93175°
Mean motion
3.76048 °/min
Orbital period
95.73 mins
BSTAR
0.00062752
Loading maneuver chart data...
Computing Atmospheric mass density...
Loading historical data...
Loading historical data...
Loading historical data...
Loading historical data...
Loading historical data...
Loading historical data...
Loading historical data...

Documentation

Showing up to 5 results
|